M0TJX-1 Weather Reports


time (UTC)temp
F
wind
direction
speed
knots
gust
knots
rain 1hr
in
rain 24hr
in
rain mn
in
humidity
%
barometer
mb
20260508032810 49 69 0.0 0.0 0.00 0.02 0.00 85 1015.2
20260508031310 49 68 0.0 0.0 0.00 0.02 0.00 84 1015.3
20260508025810 49 125 0.9 2.6 0.00 0.02 0.00 84 1015.3
20260508024310 49 123 0.9 2.6 0.00 0.02 0.00 84 1015.3
20260508022810 49 146 1.7 6.1 0.00 0.02 0.00 83 1015.2
20260508021310 49 131 0.9 3.5 0.00 0.02 0.00 82 1015.3
20260508015811 49 134 1.7 4.3 0.00 0.02 0.00 81 1015.3
20260508014311 49 138 0.9 2.6 0.00 0.02 0.00 81 1015.2
20260508012811 49 103 0.9 3.5 0.00 0.02 0.00 80 1015.3
20260508011311 49 105 0.9 2.6 0.00 0.02 0.00 80 1015.3
20260508005811 49 141 1.7 3.5 0.00 0.02 0.00 79 1015.3
20260508004311 50 135 1.7 4.3 0.00 0.02 0.00 79 1015.4
20260508002811 50 148 0.9 6.1 0.00 0.02 0.00 78 1015.3
20260508001311 50 112 0.9 5.2 0.00 0.02 0.00 77 1015.4
20260507235811 50 117 0.9 2.6 0.00 0.02 0.02 76 1015.6
20260507234311 50 126 0.0 0.0 0.00 0.02 0.02 77 1015.7
20260507232811 50 126 0.0 0.9 0.00 0.02 0.02 77 1015.6
20260507231311 51 126 0.9 2.6 0.00 0.02 0.02 76 1015.6
20260507225811 51 126 0.0 2.6 0.00 0.02 0.02 77 1015.7
20260507224311 51 126 0.0 0.9 0.00 0.02 0.02 77 1015.7
20260507222811 51 126 0.0 0.9 0.00 0.02 0.02 77 1015.8
20260507221311 51 125 0.0 1.7 0.00 0.02 0.02 78 1015.8
20260507215811 51 125 0.9 1.7 0.00 0.02 0.02 76 1015.8
20260507214311 51 125 0.0 3.5 0.00 0.02 0.02 78 1015.7
20260507212811 50 127 0.0 1.7 0.00 0.02 0.02 79 1015.7
20260507211311 50 127 0.0 0.9 0.00 0.02 0.02 82 1015.5
20260507205811 51 127 0.0 0.0 0.00 0.02 0.02 84 1015.3
20260507204311 51 127 0.0 0.0 0.00 0.02 0.02 84 1015.3
20260507202811 51 127 0.0 0.0 0.00 0.02 0.02 83 1015.1
20260507201311 51 127 0.0 0.0 0.00 0.02 0.02 82 1015.1
20260507195811 52 127 0.0 0.0 0.00 0.02 0.02 82 1015.1
20260507194311 52 127 0.0 0.0 0.00 0.02 0.02 80 1014.9
20260507192811 52 127 0.0 0.0 0.00 0.02 0.02 79 1014.8
20260507191311 52 127 0.0 1.7 0.00 0.02 0.02 79 1014.8
20260507185811 53 127 0.0 0.0 0.00 0.02 0.02 80 1014.8
20260507184311 53 127 0.0 0.9 0.00 0.02 0.02 80 1014.7
20260507182811 53 136 0.0 0.9 0.00 0.02 0.02 80 1014.6
20260507181311 53 136 0.0 1.7 0.00 0.02 0.02 80 1014.7
20260507175811 53 136 0.0 1.7 0.00 0.02 0.02 81 1014.6
20260507174311 53 136 0.0 2.6 0.00 0.02 0.02 82 1014.8
20260507172811 53 126 0.9 2.6 0.00 0.02 0.02 84 1014.9
20260507171311 53 34 0.0 1.7 0.00 0.02 0.02 88 1014.8
20260507165811 53 34 0.0 0.9 0.00 0.02 0.02 89 1014.8
20260507164311 53 34 0.0 0.0 0.00 0.02 0.02 89 1014.8
20260507162811 53 34 0.0 0.9 0.01 0.02 0.02 89 1014.8
20260507161311 53 34 0.9 2.6 0.02 0.02 0.02 88 1014.9
20260507155811 54 34 0.9 2.6 0.02 0.02 0.02 88 1014.9
20260507154311 54 37 0.9 2.6 0.02 0.02 0.02 86 1014.8
20260507152811 54 304 0.0 1.7 0.01 0.01 0.01 84 1015.0
20260507151311 55 111 0.0 0.0 0.00 0.00 0.00 80 1015.1
20260507145811 56 111 0.0 0.0 0.00 0.00 0.00 76 1015.0
20260507144311 56 111 0.9 2.6 0.00 0.00 0.00 71 1015.1
20260507142811 57 97 2.6 5.2 0.00 0.00 0.00 67 1015.2
20260507141311 57 121 0.9 5.2 0.00 0.00 0.00 64 1015.3
20260507135811 58 250 0.9 4.3 0.00 0.00 0.00 62 1015.2
20260507134311 58 113 0.9 3.5 0.00 0.00 0.00 63 1015.2
20260507132811 58 136 1.7 6.1 0.00 0.00 0.00 61 1015.1
20260507131311 58 101 2.6 6.1 0.00 0.00 0.00 60 1015.1
20260507125811 59 121 2.6 7.0 0.00 0.00 0.00 58 1015.2
20260507124311 59 137 1.7 3.5 0.00 0.00 0.00 58 1015.2
20260507122811 59 106 2.6 5.2 0.00 0.00 0.00 61 1015.3
20260507121311 58 209 2.6 6.1 0.00 0.00 0.00 61 1015.3
20260507115811 58 123 2.6 5.2 0.00 0.00 0.00 61 1015.4
20260507114312 58 149 1.7 6.1 0.00 0.00 0.00 61 1015.6
20260507112812 59 132 2.6 7.0 0.00 0.00 0.00 60 1015.5
20260507111312 61 191 1.7 6.1 0.00 0.00 0.00 60 1015.5
20260507105812 61 105 1.7 4.3 0.00 0.00 0.00 61 1015.5
20260507104312 60 126 1.7 5.2 0.00 0.00 0.00 60 1015.8
20260507102812 58 122 1.7 7.0 0.00 0.00 0.00 66 1015.8
20260507101312 57 140 1.7 2.6 0.00 0.00 0.00 73 1015.7
20260507095812 55 159 0.9 3.5 0.00 0.00 0.00 76 1015.7
20260507094312 54 159 0.9 3.5 0.00 0.00 0.00 77 1016.0
20260507092812 53 138 1.7 4.3 0.00 0.00 0.00 79 1016.0
20260507091312 51 48 1.7 3.5 0.00 0.00 0.00 81 1015.8
20260507085812 50 129 0.9 2.6 0.00 0.00 0.00 84 1016.1
20260507084312 48 148 1.7 3.5 0.00 0.00 0.00 86 1016.1
20260507082812 47 159 0.9 4.3 0.00 0.00 0.00 87 1016.0
20260507081312 46 128 0.9 2.6 0.00 0.00 0.00 88 1015.9
20260507075812 46 109 0.9 3.5 0.00 0.00 0.00 88 1015.9
20260507074312 46 91 0.9 2.6 0.00 0.00 0.00 89 1015.9
20260507072812 45 167 0.9 2.6 0.00 0.00 0.00 89 1015.9
20260507071312 45 110 0.9 3.5 0.00 0.00 0.00 89 1015.8
20260507065812 44 50 0.0 1.7 0.00 0.00 0.00 90 1015.7
20260507064312 44 86 0.0 2.6 0.00 0.00 0.00 90 1015.5
20260507062812 44 148 0.9 1.7 0.00 0.00 0.00 90 1015.4
20260507061312 44 340 0.9 1.7 0.00 0.00 0.00 91 1015.5
20260507055812 43 11 0.9 2.6 0.00 0.00 0.00 91 1015.3
20260507054312 43 109 0.9 3.5 0.00 0.00 0.00 91 1015.3
20260507052812 43 160 0.9 5.2 0.00 0.00 0.00 91 1015.3
20260507051312 43 116 0.9 3.5 0.00 0.00 0.00 90 1015.3
20260507045812 43 129 0.9 2.6 0.00 0.00 0.00 90 1015.3
20260507044312 43 24 0.0 1.7 0.00 0.00 0.00 90 1015.2
20260507042812 43 109 0.9 4.3 0.00 0.00 0.00 90 1015.1
20260507041312 43 65 0.0 0.9 0.00 0.00 0.00 90 1015.0
20260507035812 43 355 0.9 4.3 0.00 0.00 0.00 90 1015.1
20260507034312 43 355 0.9 2.6 0.00 0.00 0.00 90 1015.1